Wind_Speed
44 43 42 41 39 38 36 32 31 29 25 22 21 22 21 21 20 19 17 16 17 16 15 15 14 14 15 16 16 17 18 20 24 23 23 25 23 23 23 25 26 27 29
43 43 43 41 39 38 37 33 30 30 28 25 24 24 25 24 24 24 21 19 18 18 18 18 18 17 17 18 19 21 21 22 24 29 28 30 32 32 32 32 31 33 35
47 46 44 43 42 40 37 35 31 29 29 27 28 28 27 28 28 28 26 24 22 21 19 19 18 20 21 20 20 22 24 26 29 32 35 35 37 38 40 39 38 36 36
51 50 47 46 43 40 37 35 33 30 29 30 30 30 30 29 30 30 30 28 26 24 23 22 21 21 22 20 21 22 23 25 27 30 32 31 31 34 35 36 38 38 37
49 49 48 43 40 40 40 36 32 32 30 30 30 31 32 33 33 32 33 32 31 30 29 27 25 23 21 21 22 23 24 26 28 25 28 29 28 26 27 26 30 37 40
47 45 43 41 40 39 39 38 36 32 32 32 33 33 34 35 36 35 34 34 34 34 32 30 29 28 27 26 26 26 28 31 33 36 36 33 42 33 29 29 31 33 38
45 41 40 38 38 37 37 37 37 36 34 35 35 36 37 37 36 36 36 37 37 37 36 35 34 34 32 31 31 32 33 35 36 38 43 44 44 38 36 35 34 34 36
46 41 38 38 36 35 35 36 36 37 36 36 36 37 37 38 36 35 35 36 38 39 40 38 38 37 37 36 35 37 38 38 38 38 39 41 38 32 25 28 32 34 36
44 43 38 36 35 35 36 35 33 34 34 36 35 35 36 36 34 33 32 34 36 37 36 37 38 38 36 35 36 37 38 38 36 37 35 33 29 20 23 26 30 34 40
40 41 38 37 35 33 30 28 28 29 31 32 33 33 33 32 31 31 31 33 36 36 35 35 35 35 33 32 32 33 37 36 32 31 29 23 19 20 21 24 29 33 32
36 39 38 33 28 27 28 30 31 32 32 33 33 33 32 31 29 28 28 30 33 34 34 34 32 31 28 27 28 30 33 28 26 25 25 24 22 21 23 22 25 27 27
28 30 30 30 30 29 29 29 29 28 29 30 29 30 29 26 25 25 25 27 27 31 31 30 29 27 24 24 25 27 26 23 23 24 25 24 24 25 27 24 25 25 24
26 24 25 25 25 26 26 27 28 28 28 28 29 28 27 25 25 25 26 28 28 31 31 31 30 27 25 26 26 25 21 24 26 26 24 22 23 23 24 27 29 29 20
22 23 25 26 26 26 25 25 25 27 27 28 26 25 23 23 23 20 21 24 26 29 30 31 29 29 28 27 25 24 26 26 27 26 24 24 26 24 26 27 27 20 5
19 19 21 23 21 22 24 24 26 26 25 25 24 23 22 23 21 15 15 18 20 23 22 26 29 29 29 28 29 29 27 29 30 27 26 26 23 25 26 24 17 7 3
15 13 11 10 21 25 25 25 25 26 26 25 24 24 23 24 22 19 19 19 18 20 23 27 29 27 26 26 26 26 26 27 26 25 23 23 24 25 23 16 10 7 8
9 12 10 2 11 17 17 16 18 20 21 23 24 26 27 26 23 20 19 19 20 23 28 27 25 24 23 24 24 24 24 23 22 22 23 23 23 23 18 15 12 9 12
8 11 15 24 15 14 16 17 19 20 20 22 24 24 26 28 26 24 23 23 25 27 28 26 23 22 22 23 23 22 22 22 21 22 22 22 21 19 17 17 14 14 15
4 4 8 11 10 8 5 7 10 12 15 19 23 24 24 26 26 28 28 29 28 28 26 24 22 24 24 24 23 24 23 23 22 21 22 21 20 18 18 16 15 16 19
5 5 7 7 7 6 7 7 7 6 6 9 15 18 22 23 26 26 29 30 31 30 29 27 26 25 25 24 22 20 22 22 22 22 22 21 19 20 20 17 16 18 20
10 10 11 11 10 11 12 13 13 12 11 11 14 17 20 23 25 27 27 27 27 30 30 28 27 27 24 22 20 19 21 22 22 22 21 20 20 21 20 19 17 18 20
16 15 15 15 17 19 20 19 18 19 19 18 20 20 21 24 27 28 27 27 24 24 27 25 23 23 23 22 22 21 21 21 21 22 22 21 20 20 22 22 21 17 21
21 21 21 20 21 23 24 25 23 22 22 22 23 24 22 23 25 27 26 27 27 23 23 21 21 22 23 23 22 22 22 22 22 22 20 20 19 21 23 24 24 24 20
20 21 23 24 24 22 21 20 20 23 23 24 25 25 22 20 25 27 26 27 27 26 24 23 24 24 23 22 22 22 21 19 19 18 18 18 19 20 20 22 24 27 21
14 16 19 22 21 20 21 22 20 20 21 23 23 21 20 21 25 29 29 27 28 26 24 22 21 21 21 21 21 21 21 20 20 19 19 20 17 17 19 17 17 19 24
10 12 15 16 18 23 25 28 26 27 24 21 20 21 22 24 28 29 30 29 25 25 22 22 20 19 19 20 21 19 18 17 17 16 15 16 18 20 20 18 18 19 20
Wind_Direction
219 220 224 228 232 236 238 239 242 243 243 242 242 238 237 234 232 242 250 258 258 257 261 268 271 272 270 272 273 277 282 286 286 290 293 298 296 296 295 295 293 292 291
217 223 226 228 228 230 233 234 237 239 240 242 240 238 239 236 233 235 243 250 255 257 262 267 271 274 275 274 274 278 282 286 287 290 292 294 297 300 299 297 295 294 293
221 222 226 228 231 230 232 234 234 236 237 238 240 238 238 240 238 238 240 244 250 255 257 263 270 272 268 269 275 276 279 280 283 284 289 291 293 297 301 302 302 302 300
223 224 225 228 230 232 232 233 233 233 235 237 239 240 240 240 241 240 240 243 247 249 253 258 263 264 264 265 269 274 277 281 285 286 288 291 294 298 296 300 302 305 303
221 224 225 226 228 230 232 231 231 233 233 238 242 243 242 242 242 241 242 246 248 250 253 256 258 257 260 264 269 273 278 282 286 285 286 289 289 291 292 296 296 305 306
218 220 221 223 225 228 230 231 232 232 234 237 241 243 244 244 245 245 246 248 251 254 256 257 259 261 259 261 264 267 273 281 284 286 285 283 290 294 297 298 296 299 303
219 216 216 217 221 225 228 230 233 234 235 236 239 242 243 245 246 248 249 250 253 256 258 260 261 262 263 264 266 269 271 273 276 280 281 283 290 295 305 302 304 304 305
219 217 215 216 219 221 224 227 229 233 234 236 238 241 244 245 247 248 250 252 255 257 259 261 261 262 263 266 269 272 274 276 275 274 278 286 291 298 293 297 301 301 303
220 218 215 214 216 219 221 224 229 234 237 239 241 243 244 246 247 249 249 252 254 257 259 260 262 263 262 264 267 270 273 275 277 278 280 282 285 283 286 292 296 304 307
216 218 218 219 219 222 224 226 229 233 236 239 241 241 244 247 247 247 247 249 252 254 255 256 257 259 262 264 264 267 269 272 278 281 282 276 270 275 279 288 294 296 304
213 216 218 219 219 219 220 223 228 232 236 239 243 246 248 248 247 245 242 243 247 252 253 255 256 259 260 260 260 260 264 274 273 270 270 276 282 281 282 283 290 293 298
216 217 220 223 223 226 228 232 234 234 237 241 242 244 246 243 240 238 238 240 242 247 251 255 257 258 258 256 255 258 260 262 258 260 267 274 280 289 297 296 295 292 296
214 214 218 218 218 222 224 227 231 232 233 235 237 239 242 243 244 239 236 239 242 246 250 254 257 258 255 253 251 254 254 253 258 263 271 279 288 285 289 290 293 300 306
215 214 214 213 214 218 221 223 227 231 230 229 230 233 238 242 244 242 241 240 242 244 247 251 255 257 257 257 255 248 250 253 255 263 267 268 277 282 286 291 297 298 291
198 209 205 205 211 220 221 226 229 233 235 235 236 238 239 244 248 248 249 243 244 248 251 250 250 252 255 257 259 260 256 257 256 260 263 267 270 276 282 289 286 240 176
144 142 140 197 227 223 227 225 227 229 235 239 239 239 244 247 247 240 238 239 242 242 241 245 250 253 258 261 260 259 256 253 253 253 251 257 265 272 277 272 234 213 189
115 137 146 184 208 206 207 207 220 227 231 235 238 241 246 248 245 237 233 233 231 230 236 244 253 259 260 259 261 257 253 250 246 242 248 253 261 266 259 244 222 210 203
83 113 163 210 232 221 220 220 227 234 239 246 249 253 253 255 254 246 237 233 232 231 235 241 246 253 259 261 257 254 252 249 243 247 244 253 256 250 245 224 224 223 206
88 151 194 214 213 203 201 210 227 240 248 251 253 251 254 253 249 243 239 237 239 242 241 244 249 257 262 262 259 254 251 248 244 238 246 249 241 241 227 219 234 218 205
302 288 280 270 255 253 258 252 254 266 281 285 275 266 260 254 247 243 240 238 239 238 241 242 244 250 255 257 255 247 241 237 236 244 243 237 239 236 221 225 221 206 198
287 273 266 267 261 253 250 254 259 259 259 270 280 277 271 260 251 244 240 235 236 237 234 240 245 248 246 243 247 245 244 245 243 237 236 238 238 232 218 217 216 210 202
286 275 267 261 258 255 255 255 253 253 259 266 273 276 273 256 250 246 241 231 229 231 235 238 242 239 242 246 246 246 244 239 236 237 239 240 236 223 214 217 205 201 200
287 280 272 268 264 259 256 253 253 254 258 266 270 272 269 262 255 247 243 234 225 225 233 239 243 244 245 244 242 239 239 239 241 241 235 230 223 214 214 214 212 206 199
281 278 273 268 266 261 260 258 255 254 254 264 263 265 262 259 255 245 237 231 225 223 219 219 226 231 230 231 230 234 233 228 221 216 214 215 216 214 215 218 221 217 206
287 279 283 277 268 262 259 254 252 246 250 255 258 259 255 255 249 240 232 230 228 227 224 221 216 217 222 222 221 221 225 222 216 217 219 217 213 216 211 213 211 212 207
297 290 289 277 260 259 257 261 254 255 255 258 260 250 242 238 230 226 228 226 220 217 219 220 220 217 225 223 221 220 216 211 207 206 211 218 221 222 220 221 221 215 213
Height
1521 1528 1534 1539 1544 1550 1555 1559 1563 1568 1572 1575 1577 1580 1582 1584 1586 1588 1590 1592 1593 1595 1596 1597 1598 1599 1600 1600 1600 1599 1599 1598 1596 1594 1593 1592 1591 1590 1590 1588 1586 1584 1581
1513 1520 1526 1532 1538 1543 1547 1552 1557 1561 1566 1570 1573 1575 1577 1580 1582 1583 1585 1587 1589 1591 1592 1593 1594 1595 1595 1596 1596 1595 1595 1594 1593 1589 1588 1587 1584 1583 1582 1581 1579 1576 1573
1504 1511 1518 1524 1529 1535 1540 1545 1550 1555 1560 1564 1567 1569 1571 1574 1577 1579 1581 1582 1584 1585 1587 1588 1589 1590 1590 1591 1591 1591 1590 1589 1588 1585 1581 1581 1578 1576 1573 1571 1569 1567 1565
1494 1501 1507 1514 1521 1527 1533 1538 1543 1548 1553 1557 1560 1563 1565 1569 1571 1573 1575 1577 1579 1580 1582 1583 1584 1584 1585 1586 1587 1587 1586 1584 1583 1579 1575 1573 1571 1570 1568 1565 1561 1560 1555
1484 1491 1498 1506 1513 1520 1524 1530 1536 1541 1545 1549 1553 1556 1559 1562 1564 1566 1569 1571 1573 1575 1576 1577 1578 1579 1580 1582 1582 1581 1581 1579 1577 1575 1571 1568 1566 1565 1563 1560 1555 1550 1545
1476 1483 1491 1499 1505 1510 1516 1522 1527 1533 1537 1542 1545 1549 1551 1553 1556 1559 1563 1564 1566 1567 1569 1570 1572 1572 1573 1575 1575 1576 1576 1573 1571 1569 1564 1562 1558 1557 1556 1553 1549 1543 1537
1467 1476 1482 1489 1495 1501 1508 1513 1518 1523 1529 1533 1536 1540 1542 1545 1548 1551 1555 1557 1558 1559 1561 1562 1564 1565 1566 1567 1567 1568 1567 1567 1565 1562 1556 1553 1551 1551 1548 1543 1541 1538 1534
1460 1469 1475 1480 1487 1493 1499 1503 1510 1515 1519 1523 1528 1531 1534 1536 1539 1543 1546 1548 1549 1550 1552 1553 1554 1556 1557 1558 1559 1559 1557 1556 1555 1554 1550 1546 1545 1543 1541 1538 1533 1530 1527
1453 1461 1467 1474 1480 1485 1489 1495 1502 1507 1511 1515 1519 1522 1524 1527 1531 1534 1538 1539 1539 1539 1542 1543 1544 1545 1547 1550 1550 1549 1547 1546 1547 1545 1543 1540 1539 1538 1537 1532 1529 1525 1519
1445 1453 1461 1468 1473 1478 1484 1490 1496 1500 1504 1508 1510 1513 1515 1518 1522 1525 1528 1529 1529 1530 1532 1532 1534 1535 1538 1540 1541 1540 1537 1538 1538 1536 1533 1532 1533 1533 1532 1530 1525 1521 1517
1442 1448 1455 1462 1468 1474 1479 1484 1487 1492 1496 1499 1502 1505 1507 1509 1512 1515 1518 1518 1519 1521 1522 1524 1525 1527 1530 1531 1532 1531 1528 1531 1530 1528 1527 1526 1526 1526 1525 1524 1521 1517 1514
1439 1445 1450 1456 1462 1467 1472 1476 1480 1484 1488 1491 1494 1496 1497 1500 1503 1507 1509 1510 1513 1513 1514 1516 1517 1519 1521 1522 1522 1521 1522 1523 1521 1521 1520 1520 1519 1518 1516 1515 1513 1511 1508
1435 1440 1445 1450 1455 1460 1464 1468 1472 1476 1479 1482 1485 1487 1490 1493 1495 1498 1500 1502 1504 1504 1506 1508 1509 1510 1512 1513 1513 1514 1515 1514 1514 1514 1514 1514 1514 1513 1511 1509 1506 1504 1501
1432 1436 1440 1444 1449 1453 1457 1461 1464 1468 1471 1474 1477 1480 1483 1486 1488 1490 1492 1493 1495 1495 1497 1498 1500 1501 1502 1503 1504 1506 1507 1508 1508 1508 1508 1509 1508 1507 1505 1503 1500 1499 1498
1429 1432 1436 1441 1445 1450 1452 1455 1458 1461 1466 1469 1471 1475 1477 1479 1482 1485 1486 1487 1488 1488 1491 1490 1490 1491 1492 1494 1495 1496 1498 1499 1499 1501 1501 1502 1502 1501 1499 1497 1496 1495 1496
1427 1432 1437 1443 1440 1446 1448 1449 1452 1455 1459 1463 1465 1468 1471 1473 1476 1479 1480 1481 1482 1483 1482 1481 1482 1484 1485 1487 1487 1488 1489 1490 1492 1493 1494 1495 1495 1495 1493 1492 1492 1492 1493
1428 1432 1436 1440 1450 1450 1445 1442 1446 1450 1453 1456 1458 1461 1463 1466 1469 1472 1473 1474 1475 1475 1474 1475 1476 1478 1479 1480 1480 1480 1482 1483 1485 1487 1488 1488 1488 1488 1488 1488 1489 1490 1490
1431 1428 1434 1453 1451 1444 1443 1441 1444 1446 1448 1450 1453 1455 1456 1458 1460 1463 1465 1466 1466 1466 1467 1468 1470 1471 1471 1472 1473 1474 1475 1476 1478 1479 1480 1481 1481 1482 1482 1484 1485 1486 1487
1432 1438 1444 1448 1445 1439 1436 1436 1438 1440 1442 1445 1446 1448 1450 1451 1452 1454 1456 1457 1459 1460 1461 1462 1463 1464 1465 1465 1466 1467 1467 1469 1471 1472 1473 1474 1475 1476 1477 1480 1481 1481 1482
1422 1425 1428 1428 1428 1429 1431 1433 1435 1435 1437 1438 1440 1442 1443 1444 1444 1445 1447 1449 1450 1452 1453 1454 1455 1457 1457 1458 1458 1459 1460 1462 1464 1465 1466 1468 1469 1470 1472 1475 1476 1477 1479
1420 1423 1424 1424 1425 1428 1430 1431 1432 1432 1433 1434 1435 1437 1439 1438 1438 1438 1439 1440 1442 1444 1445 1447 1447 1449 1450 1451 1452 1453 1454 1456 1457 1458 1460 1461 1463 1464 1467 1470 1472 1473 1475
1417 1418 1420 1422 1424 1425 1426 1427 1427 1427 1427 1428 1428 1430 1431 1431 1431 1432 1433 1435 1436 1437 1438 1439 1440 1441 1443 1444 1446 1447 1448 1449 1451 1452 1454 1456 1457 1459 1462 1465 1468 1470 1471
1412 1413 1414 1415 1417 1418 1419 1420 1420 1420 1419 1419 1419 1420 1422 1423 1425 1426 1427 1429 1429 1430 1432 1433 1434 1435 1436 1437 1439 1440 1442 1443 1444 1445 1448 1450 1452 1455 1457 1460 1462 1466 1469
1405 1406 1407 1408 1410 1412 1413 1413 1414 1414 1412 1410 1411 1411 1413 1415 1418 1420 1420 1421 1423 1424 1425 1425 1426 1427 1429 1431 1432 1433 1435 1436 1438 1440 1442 1444 1447 1449 1452 1455 1458 1461 1464
1400 1399 1400 1399 1401 1404 1406 1406 1407 1407 1404 1401 1402 1403 1404 1407 1409 1413 1414 1415 1417 1419 1420 1420 1421 1422 1424 1426 1427 1428 1429 1431 1434 1436 1437 1440 1443 1446 1449 1452 1453 1456 1458
1396 1394 1392 1392 1393 1396 1398 1398 1398 1398 1397 1394 1394 1396 1398 1399 1400 1404 1407 1408 1410 1412 1415 1416 1417 1419 1421 1422 1423 1424 1426 1427 1429 1432 1434 1436 1439 1442 1445 1447 1451 1451 1452